Weather History for TDCF - January, 2013

Change the Weather History Date:

Sunday, January 6, 2013

  Actual Average Record
Temperature  
Mean Temperature 80 °F -  
Max Temperature 86 °F 84 °F 87 °F (1998)
Min Temperature 73 °F 71 °F 68 °F (2008)
Cooling Degree Days 14    
Growing Degree Days 30 (Base 50)    
Moisture  
Dew Point 68 °F    
Average Humidity 65    
Maximum Humidity 83    
Minimum Humidity 33    
Precipitation  
Precipitation 0.12 in - - ()
Sea Level Pressure  
Sea Level Pressure 30.02 in    
Wind  
Wind Speed 5 mph ()    
Max Wind Speed 10 mph    
Max Gust Speed 17 mph    
Visibility 7.0 miles    
Events Rain    
Averages and records for this station are not official NWS values.
T = Trace of Precipitation, MM = Missing Value Source: Averaged Metar Reports

Daily Weather History Graph

Daily Weather History Graph

Search for Another Location

Airport or City:

Trip Planner

Search our weather history database for the weather conditions in past years. The results will help you decide how hot, cold, wet, or windy it might be!

Date:

Astronomy

Jan. 06, 2013 Rise Set
Actual Time 6:33 AM AST 5:49 PM AST
Civil Twilight 6:10 AM AST 6:12 PM AST
Nautical Twilight 5:43 AM AST 6:39 PM AST
Astronomical Twilight 5:17 AM AST 7:05 PM AST
Moon 1:03 AM AST (1/6) 12:56 PM AST (1/6)
Length of Visible Light 12h 02m
Length of Day
11h 15m
Waning Crescent, 34% of the Moon is Illuminated
Jan 6
Waning Crescent
Jan 11
New
Jan 18
First Quarter
Jan 27
Full
Feb 3
Last Quarter

Hourly Weather History & Observations

Time (AST) Temp. Heat Index Dew Point Humidity Pressure Visibility Wind Dir Wind Speed Gust Speed Precip Events Conditions
6:00 AM 78.8 °F - 66.2 °F 65% 30.01 in 6.2 mi East 6.9 mph - N/A   Mostly Cloudy
7:00 AM 75.2 °F - 68.0 °F 78% 30.01 in 6.2 mi ESE 4.6 mph 17.3 mph N/A Rain Light Rain Showers
8:00 AM 74 °F - 69 °F 78% 30.06 in 2 mi SSE 3.5 mph - - Rain Light Rain Showers
8:00 AM 73.4 °F - 68.0 °F 83% 30.04 in 1.9 mi SSE 3.5 mph - N/A Rain Light Rain Showers
9:00 AM 77.0 °F - 68.0 °F 74% 30.06 in 3.7 mi ESE 6.9 mph - N/A Rain Light Rain Showers
10:00 AM 77.0 °F - 68.0 °F 74% 30.06 in 4.3 mi East 4.6 mph - N/A   Mostly Cloudy
11:00 AM 83 °F - 69 °F 54% 30.04 in 16 mi ENE 4.6 mph - - Rain Light Rain Showers
11:00 AM 82.4 °F 86.3 °F 69.8 °F 66% 30.06 in 6.2 mi ENE 4.6 mph - N/A   Scattered Clouds
12:00 PM 84.2 °F 86.6 °F 66.2 °F 55% 30.04 in 6.2 mi ENE 9.2 mph - N/A   Scattered Clouds
1:00 PM 84.2 °F 86.6 °F 66.2 °F 55% 30.04 in 6.2 mi East 8.1 mph - N/A Rain Light Rain Showers
2:00 PM 84 °F - 68 °F 49% 30.00 in 16 mi East 4.6 mph - -   Mostly Cloudy
2:00 PM 84.2 °F 87.3 °F 68.0 °F 58% 29.98 in 6.2 mi East 4.6 mph - N/A   Mostly Cloudy
3:00 PM 84.2 °F 86.6 °F 66.2 °F 55% 29.98 in 6.2 mi East 10.4 mph - N/A   Partly Cloudy
4:00 PM 84.2 °F 87.3 °F 68.0 °F 58% 29.98 in 6.2 mi East 8.1 mph - N/A   Scattered Clouds
5:00 PM 83 °F - 59 °F 33% 29.99 in 14 mi East 5.8 mph - - Rain Light Rain Showers
5:00 PM 82.4 °F 86.3 °F 69.8 °F 66% 29.98 in 6.2 mi East 5.8 mph - N/A Rain Light Rain Showers
6:00 PM 78.8 °F - 68.0 °F 69% 29.98 in 6.2 mi ESE 6.9 mph - N/A Rain Light Rain Showers
7:00 PM 75.2 °F - 69.8 °F 83% 30.01 in 6.2 mi East 3.5 mph - N/A Rain Light Rain Showers
8:00 PM 75.2 °F - 68.0 °F 78% 30.01 in 6.2 mi East 8.1 mph - N/A Rain Light Rain Showers